FW7685 Weather Reports


time (UTC)temp
C
wind
direction
speed
KPH
gust
KPH
rain 1hr
cm
rain 24hr
cm
rain mn
cm
humidity
%
barometer
mb
20260505153255 14 310 1.6 6.4 0.00 0.00 0.00 48 1010.6
20260505152752 14 314 1.6 6.4 0.00 0.00 0.00 48 1010.6
20260505152254 14 290 1.6 8.0 0.00 0.00 0.00 48 1010.6
20260505151752 14 347 1.6 8.0 0.00 0.00 0.00 48 1010.7
20260505151255 14 321 1.6 6.4 0.00 0.00 0.00 48 1010.8
20260505150752 14 316 3.2 6.4 0.00 0.00 0.00 48 1010.7
20260505150252 14 35 1.6 6.4 0.00 0.00 0.00 48 1010.7
20260505140152 14 314 1.6 8.0 0.00 0.00 0.00 49 1010.9
20260505124748 15 23 3.2 11.3 0.00 0.00 0.00 48 1011.2
20260505124423 15 69 3.2 8.0 0.00 0.00 0.00 49 1011.2
20260505123249 14 178 3.2 6.4 0.00 0.00 0.00 50 1011.3
20260505122748 14 35 1.6 4.8 0.00 0.00 0.00 50 1011.3
20260505122249 13 39 1.6 6.4 0.00 0.00 0.00 51 1011.3
20260505122152 13 317 3.2 6.4 0.00 0.00 0.00 51 1011.3
20260505121423 13 45 1.6 8.0 0.00 0.00 0.00 50 1011.3
20260505120250 14 72 3.2 8.0 0.00 0.00 0.00 51 1011.3
20260505115746 13 269 1.6 6.4 0.00 0.00 0.00 52 1011.3
20260505115247 13 314 1.6 8.0 0.00 0.00 0.00 52 1011.3
20260505114747 13 109 3.2 8.0 0.00 0.00 0.00 51 1011.3
20260505114247 13 286 1.6 6.4 0.00 0.00 0.00 51 1011.4
20260505114139 13 223 3.2 6.4 0.00 0.00 0.00 51 1011.4
20260505113247 13 314 3.2 6.4 0.00 0.00 0.00 51 1011.4
20260505112747 13 234 3.2 6.4 0.00 0.00 0.00 52 1011.5
20260505112248 13 16 1.6 6.4 0.00 0.00 0.00 52 1011.5
20260505111746 12 89 1.6 6.4 0.00 0.00 0.00 52 1011.6
20260505111249 12 45 1.6 6.4 0.00 0.00 0.00 52 1011.6
20260505110747 12 45 1.6 6.4 0.00 0.00 0.00 52 1011.6
20260505110248 12 1 1.6 8.0 0.00 0.00 0.00 52 1011.7
20260505102141 12 269 3.2 6.4 0.00 0.00 0.00 53 1011.8
20260505101418 12 45 3.2 6.4 0.00 0.00 0.00 53 1011.9
20260505100248 12 117 1.6 9.7 0.00 0.00 0.00 54 1011.9
20260505095920 12 312 3.2 9.7 0.00 0.00 0.00 55 1012.0
20260505094746 11 1 3.2 9.7 0.00 0.00 0.00 54 1012.0
20260505094249 11 54 3.2 9.7 0.00 0.00 0.00 54 1012.0
20260505093745 11 319 1.6 9.7 0.00 0.00 0.00 54 1012.0
20260505093246 11 45 3.2 8.0 0.00 0.00 0.00 54 1012.0
20260505092745 12 319 3.2 9.7 0.00 0.00 0.00 53 1012.0
20260505092247 12 303 3.2 9.7 0.00 0.00 0.00 53 1012.0
20260505091743 12 281 1.6 9.7 0.00 0.00 0.00 54 1012.0
20260505091651 12 307 3.2 9.7 0.00 0.00 0.00 53 1012.0
20260505090744 12 337 3.2 8.0 0.00 0.00 0.00 54 1012.0
20260505090244 12 8 3.2 6.4 0.00 0.00 0.00 54 1012.0
20260505090139 12 56 1.6 6.4 0.00 0.00 0.00 54 1012.0
20260505085245 12 327 1.6 8.0 0.00 0.00 0.00 54 1012.1
20260505084745 12 298 3.2 8.0 0.00 0.00 0.00 54 1012.1
20260505084242 12 1 3.2 8.0 0.00 0.00 0.00 54 1012.1
20260505083742 12 38 1.6 4.8 0.00 0.00 0.00 55 1012.2
20260505083636 11 28 1.6 6.4 0.00 0.00 0.00 55 1012.2
20260505083136 11 321 3.2 8.0 0.00 0.00 0.00 55 1012.3
20260505082241 11 20 3.2 8.0 0.00 0.00 0.00 55 1012.2
20260505081740 11 45 3.2 8.0 0.00 0.00 0.00 55 1012.1
20260505081242 11 314 3.2 8.0 0.00 0.00 0.00 54 1012.1
20260505080739 11 45 3.2 6.4 0.00 0.00 0.00 55 1012.1
20260505080239 11 314 1.6 8.0 0.00 0.00 0.00 55 1012.1
20260505075739 11 45 3.2 8.0 0.00 0.00 0.00 54 1012.1
20260505075241 11 45 3.2 8.0 0.00 0.00 0.00 54 1012.1
20260505074741 11 62 1.6 6.4 0.00 0.00 0.00 55 1012.1
20260505074239 11 1 1.6 6.4 0.00 0.00 0.00 55 1012.1
20260505073740 11 1 1.6 6.4 0.00 0.00 0.00 55 1012.1
20260505073238 11 269 3.2 4.8 0.00 0.00 0.00 56 1012.1
20260505072743 11 38 1.6 8.0 0.00 0.00 0.00 56 1012.1
20260505072636 11 341 3.2 8.0 0.00 0.00 0.00 55 1012.1
20260505071740 11 230 3.2 6.4 0.00 0.00 0.00 55 1012.1
20260505071240 11 269 3.2 6.4 0.00 0.00 0.00 55 1012.2
20260505070925 11 1 1.6 6.4 0.00 0.00 0.00 55 1012.2
20260505070834 11 62 3.2 6.4 0.00 0.00 0.00 55 1012.1
20260505065241 11 20 3.2 6.4 0.00 0.00 0.00 56 1012.1
20260505064740 11 321 3.2 6.4 0.00 0.00 0.00 56 1012.2
20260505064238 11 314 3.2 6.4 0.00 0.00 0.00 57 1012.2
20260505063739 11 321 1.6 6.4 0.00 0.00 0.00 57 1012.3
20260505063241 11 320 3.2 6.4 0.00 0.00 0.00 57 1012.2
20260505062740 11 314 1.6 4.8 0.00 0.00 0.00 58 1012.2
20260505062239 11 1 1.6 8.0 0.00 0.00 0.00 58 1012.2
20260505061740 11 306 1.6 8.0 0.00 0.00 0.00 59 1012.1
20260505061240 11 353 1.6 4.8 0.00 0.00 0.00 60 1012.1
20260505060741 11 135 0.0 4.8 0.00 0.00 0.00 60 1012.2
20260505060240 11 324 1.6 4.8 0.00 0.00 0.00 61 1012.1
20260505055738 11 1 1.6 4.8 0.00 0.00 0.00 61 1012.1
20260505055238 11 216 1.6 4.8 0.00 0.00 0.00 61 1012.1
20260505054740 11 310 3.2 4.8 0.00 0.00 0.00 61 1012.1
20260505054238 11 300 1.6 4.8 0.00 0.00 0.00 61 1012.1
20260505054119 10 89 1.6 4.8 0.00 0.00 0.00 61 1012.1
20260505053239 10 306 1.6 4.8 0.00 0.00 0.00 61 1012.2
20260505052741 10 296 1.6 4.8 0.00 0.00 0.00 61 1012.2
20260505052238 10 223 3.2 6.4 0.00 0.00 0.00 61 1012.2
20260505051737 10 321 1.6 6.4 0.00 0.00 0.00 61 1012.2
20260505051237 10 269 1.6 4.8 0.00 0.00 0.00 61 1012.2
20260505050736 10 319 1.6 4.8 0.00 0.00 0.00 61 1012.2
20260505050633 10 331 1.6 4.8 0.00 0.00 0.00 61 1012.2
20260505041737 11 331 0.0 4.8 0.00 0.00 0.00 60 1012.5
20260505041237 11 1 1.6 6.4 0.00 0.00 0.00 60 1012.4
20260505040736 11 1 1.6 6.4 0.00 0.00 0.00 60 1012.3
20260505040237 11 314 1.6 4.8 0.00 0.00 0.00 60 1012.4
20260505035736 11 303 3.2 4.8 0.00 0.00 0.00 60 1012.4
20260505035627 11 269 1.6 4.8 0.00 0.00 0.00 60 1012.4
20260505034738 11 314 1.6 4.8 0.00 0.00 0.00 60 1012.4
20260505034628 11 327 1.6 3.2 0.00 0.00 0.00 60 1012.3
20260505033736 11 269 1.6 3.2 0.00 0.00 0.00 60 1012.3
20260505033235 11 321 1.6 3.2 0.00 0.00 0.00 60 1012.4
20260505032734 11 303 1.6 3.2 0.00 0.00 0.00 60 1012.4
20260505032405 11 135 0.0 4.8 0.00 0.00 0.00 60 1012.4
20260505031235 11 296 1.6 6.4 0.00 0.00 0.00 60 1012.4
20260505030734 11 79 1.6 6.4 0.00 0.00 0.00 60 1012.5
20260505030234 11 45 1.6 3.2 0.00 0.00 0.00 60 1012.5
20260505025859 11 28 1.6 4.8 0.00 0.00 0.00 60 1012.5
20260505024736 11 1 1.6 3.2 0.00 0.00 0.00 60 1012.5
20260505024234 11 314 1.6 4.8 0.00 0.00 0.00 60 1012.5
20260505023736 11 269 1.6 6.4 0.00 0.00 0.00 60 1012.5
20260505023624 11 296 1.6 6.4 0.00 0.00 0.00 60 1012.4
20260505022734 11 299 1.6 6.4 0.00 0.00 0.00 60 1012.4
20260505022234 11 314 1.6 6.4 0.00 0.00 0.00 60 1012.3
20260505021733 11 314 1.6 6.4 0.00 0.00 0.00 60 1012.4
20260505021235 11 269 1.6 6.4 0.00 0.00 0.00 60 1012.4
20260505020734 11 324 1.6 6.4 0.00 0.00 0.00 60 1012.5
20260505020232 11 206 1.6 4.8 0.00 0.00 0.00 60 1012.4
20260505015733 11 300 1.6 4.8 0.00 0.00 0.00 60 1012.5
20260505015231 11 178 1.6 4.8 0.00 0.00 0.00 60 1012.8
20260505014733 11 331 1.6 4.8 0.00 0.00 0.00 60 1012.8
20260505014232 11 314 1.6 6.4 0.00 0.00 0.00 60 1012.8
20260505013733 11 324 1.6 6.4 0.00 0.00 0.00 60 1012.6
20260505013231 11 279 1.6 4.8 0.00 0.00 0.00 60 1012.9
20260505012733 11 306 1.6 4.8 0.00 0.00 0.00 60 1013.0
20260505012726 11 135 0.0 1.6 0.00 0.00 0.00 60 1013.2
20260505012125 11 1 0.0 3.2 0.00 0.00 0.00 60 1013.1
20260505011233 11 331 0.0 3.2 0.00 0.00 0.00 60 1012.9
20260505010732 11 314 1.6 4.8 0.00 0.00 0.00 60 1012.9
20260505010233 11 20 1.6 4.8 0.00 0.00 0.00 60 1013.0
20260505005732 12 1 1.6 4.8 0.00 0.00 0.00 59 1013.0
20260505005231 12 28 1.6 4.8 0.00 0.00 0.00 59 1013.0
20260505004732 12 135 1.6 4.8 0.00 0.00 0.00 59 1013.1
20260505004625 12 331 1.6 3.2 0.00 0.00 0.00 59 1013.2
20260505003733 12 45 0.0 3.2 0.00 0.00 0.00 59 1013.1
20260505003621 12 269 1.6 3.2 0.00 0.00 0.00 59 1013.2
20260505002733 12 310 1.6 6.4 0.00 0.00 0.00 59 1013.2
20260505002231 12 45 1.6 6.4 0.00 0.00 0.00 59 1013.2
20260505001734 12 321 3.2 4.8 0.00 0.00 0.00 59 1013.3
20260505001231 12 45 1.6 4.8 0.00 0.00 0.00 59 1013.3
20260505001130 12 23 3.2 4.8 0.00 0.00 0.00 59 1013.3
20260505000230 12 348 3.2 4.8 0.00 0.00 0.00 59 1013.3
20260504235730 12 20 3.2 4.8 0.00 0.00 0.00 59 1013.4
20260504235230 12 28 1.6 4.8 0.00 0.00 0.00 59 1013.5
20260504235130 12 351 1.6 4.8 0.00 0.00 0.00 59 1013.5
20260504234232 12 341 3.2 4.8 0.00 0.00 0.00 59 1013.5
20260504233728 12 309 3.2 4.8 0.00 0.00 0.00 59 1013.4
20260504233229 12 314 1.6 4.8 0.00 0.00 0.00 59 1013.4
20260504232728 12 337 1.6 6.4 0.00 0.00 0.00 59 1013.5
20260504232229 12 337 3.2 6.4 0.00 0.00 0.00 59 1013.5
20260504231728 12 28 1.6 4.8 0.00 0.00 0.00 59 1013.4
20260504231625 12 1 3.2 6.4 0.00 0.00 0.00 59 1013.4
20260504231135 12 56 3.2 6.4 0.00 0.00 0.00 59 1013.4
20260504230226 12 1 1.6 4.8 0.00 0.00 0.00 59 1013.5
20260504225731 12 31 3.2 4.8 0.00 0.00 0.00 59 1013.5
20260504225228 12 45 1.6 4.8 0.00 0.00 0.00 59 1013.6
20260504224731 12 327 3.2 4.8 0.00 0.00 0.00 59 1013.6
20260504224231 12 54 1.6 4.8 0.00 0.00 0.00 59 1013.5
20260504223729 12 178 1.6 6.4 0.00 0.00 0.00 59 1013.7
20260504223228 12 45 3.2 6.4 0.00 0.00 0.00 59 1013.6
20260504223128 13 344 1.6 6.4 0.00 0.00 0.00 59 1013.6
20260504222229 13 269 1.6 4.8 0.00 0.00 0.00 58 1013.7
20260504222125 13 306 3.2 4.8 0.00 0.00 0.00 58 1013.6
20260504221625 13 45 1.6 6.4 0.00 0.00 0.00 58 1013.6
20260504221123 13 286 3.2 6.4 0.00 0.00 0.00 58 1013.7
20260504220229 13 314 1.6 4.8 0.00 0.00 0.00 59 1013.7
20260504215727 13 331 3.2 4.8 0.00 0.00 0.00 58 1013.7
20260504215230 13 314 1.6 4.8 0.00 0.00 0.00 59 1013.7
20260504214728 13 306 3.2 4.8 0.00 0.00 0.00 58 1013.7
20260504214227 13 28 1.6 4.8 0.00 0.00 0.00 58 1013.7
20260504214122 13 324 1.6 6.4 0.00 0.00 0.00 58 1013.7
20260504213618 13 269 1.6 6.4 0.00 0.00 0.00 58 1013.7
20260504212728 13 45 1.6 6.4 0.00 0.00 0.00 58 1013.8
20260504212226 13 279 1.6 6.4 0.00 0.00 0.00 58 1013.8
20260504211726 13 314 1.6 6.4 0.00 0.00 0.00 58 1013.8
20260504211227 13 56 1.6 9.7 0.00 0.00 0.00 58 1013.8
20260504210725 13 117 3.2 9.7 0.00 0.00 0.00 58 1013.8
20260504210622 13 1 0.0 4.8 0.00 0.00 0.00 58 1013.8
20260504205725 13 45 1.6 4.8 0.00 0.00 0.00 58 1013.8
20260504205619 13 323 1.6 4.8 0.00 0.00 0.00 58 1013.8
20260504204726 13 314 1.6 4.8 0.00 0.00 0.00 58 1013.7
20260504204227 13 32 1.6 4.8 0.00 0.00 0.00 58 1013.7
20260504203725 13 28 1.6 4.8 0.00 0.00 0.00 58 1013.7
20260504203227 13 286 1.6 4.8 0.00 0.00 0.00 58 1013.6
20260504202724 13 28 1.6 3.2 0.00 0.00 0.00 58 1013.7
20260504202225 13 292 1.6 3.2 0.00 0.00 0.00 58 1013.7
20260504201725 13 28 1.6 3.2 0.00 0.00 0.00 58 1013.6
20260504201614 13 28 1.6 4.8 0.00 0.00 0.00 58 1013.6
20260504200726 13 35 0.0 4.8 0.00 0.00 0.00 58 1013.6
20260504200223 13 314 1.6 3.2 0.00 0.00 0.00 58 1013.5
20260504200126 13 223 0.0 3.2 0.00 0.00 0.00 58 1013.6
20260504195619 13 269 0.0 3.2 0.00 0.00 0.00 58 1013.5
20260504194723 13 1 0.0 4.8 0.00 0.00 0.00 58 1013.4
20260504194619 13 314 1.6 6.4 0.00 0.00 0.00 58 1013.4
20260504193720 13 320 1.6 6.4 0.00 0.00 0.00 57 1013.4
20260504193220 13 296 1.6 4.8 0.00 0.00 0.00 57 1013.3
20260504192718 13 89 1.6 4.8 0.00 0.00 0.00 57 1013.2
20260504192219 14 89 1.6 6.4 0.00 0.00 0.00 57 1013.2
20260504191718 14 314 1.6 6.4 0.00 0.00 0.00 57 1013.3
20260504191215 14 72 3.2 6.4 0.00 0.00 0.00 57 1013.3
20260504190715 14 10 1.6 6.4 0.00 0.00 0.00 57 1013.2
20260504190215 14 1 1.6 4.8 0.00 0.00 0.00 57 1013.3
20260504185717 14 20 1.6 4.8 0.00 0.00 0.00 57 1013.1
20260504185611 14 1 1.6 4.8 0.00 0.00 0.00 57 1013.2
20260504185116 14 1 1.6 6.4 0.00 0.00 0.00 57 1013.2
20260504184210 14 24 3.2 6.4 0.00 0.00 0.00 56 1013.2
20260504183713 14 338 3.2 4.8 0.00 0.00 0.00 56 1013.1
20260504183212 14 28 1.6 4.8 0.00 0.00 0.00 56 1013.1
20260504183118 14 45 1.6 4.8 0.00 0.00 0.00 56 1013.0
20260504182211 15 28 1.6 4.8 0.00 0.00 0.00 56 1013.0
20260504181710 15 51 1.6 4.8 0.00 0.00 0.00 56 1013.0
20260504181208 15 45 1.6 4.8 0.00 0.00 0.00 56 1013.0
20260504180708 15 117 1.6 6.4 0.00 0.00 0.00 56 1013.0
20260504180208 15 28 3.2 6.4 0.00 0.00 0.00 56 1013.0
20260504175707 15 135 3.2 4.8 0.00 0.00 0.00 56 1013.0
20260504175207 15 45 3.2 8.0 0.00 0.00 0.00 55 1012.9
20260504174708 15 331 3.2 8.0 0.00 0.00 0.00 55 1012.9
20260504174207 15 20 3.2 6.4 0.00 0.00 0.00 55 1012.9
20260504174057 15 35 3.2 8.0 0.00 0.00 0.00 55 1013.0
20260504173204 15 10 3.2 8.0 0.00 0.00 0.00 55 1012.9
20260504172705 15 75 3.2 8.0 0.00 0.00 0.00 55 1012.9
20260504172207 15 336 3.2 8.0 0.00 0.00 0.00 54 1012.9
20260504171704 15 69 4.8 8.0 0.00 0.00 0.00 54 1012.9
20260504171203 15 296 4.8 8.0 0.00 0.00 0.00 54 1012.9
20260504170704 15 41 3.2 11.3 0.00 0.00 0.00 53 1012.8
20260504170204 15 58 3.2 11.3 0.00 0.00 0.00 53 1012.8
20260504160203 17 1 3.2 9.7 0.00 0.00 0.00 50 1012.8